Vorticity
nan nan nan nan nan nan nan nan nan nan nan nan nan nan nan nan nan nan nan nan nan nan nan nan nan nan nan nan nan nan nan nan nan nan nan nan nan nan nan nan nan nan nan nan nan nan nan nan nan
nan 0 2 6 3 7 7 0 5 7 3 1 3 6 7 17 23 15 7 10 5 4 6 6 6 7 6 6 5 5 5 4 5 5 6 6 6 6 5 5 7 7 7 5 5 5 6 6 nan
nan 9 9 5 10 3 7 6 9 6 2 11 6 1 10 12 9 8 9 5 5 5 7 5 7 7 7 6 5 5 5 5 5 5 6 7 7 5 7 7 6 6 5 5 6 5 4 5 nan
nan 10 9 11 17 9 5 6 9 5 6 12 4 5 15 10 8 9 9 3 2 8 5 6 6 6 6 5 5 6 6 7 8 6 5 4 5 6 7 5 6 7 5 5 5 4 4 4 nan
nan 5 8 9 7 5 4 7 3 7 11 4 11 12 4 8 12 9 2 2 7 5 5 5 5 6 6 6 6 5 6 6 4 5 5 4 4 5 4 5 5 7 6 4 4 6 6 4 nan
nan 3 9 5 -2 8 12 18 1 8 2 5 7 5 0 5 8 7 4 9 7 5 6 5 5 5 6 6 5 5 5 5 4 4 4 5 4 4 4 5 5 5 5 5 4 6 6 5 nan
nan 4 11 10 11 9 -1 -3 11 19 6 8 7 -2 4 8 9 7 0 8 1 8 5 5 5 4 4 4 5 5 4 4 4 4 4 5 4 7 8 8 3 5 6 5 5 5 5 4 nan
nan 9 6 9 8 6 10 5 15 3 9 7 6 17 13 12 3 3 5 5 5 4 3 5 6 4 2 5 4 4 4 4 4 6 4 4 2 1 4 12 10 6 6 5 6 6 5 5 nan
nan 15 7 8 11 11 5 8 7 4 -1 6 24 23 14 8 7 0 7 -4 7 12 5 6 5 4 5 5 6 4 4 6 6 3 3 4 7 -0 -4 2 14 10 5 6 6 6 6 6 nan
nan 1 5 14 12 17 8 -2 10 7 6 10 14 13 13 4 5 4 5 3 8 5 4 7 6 6 7 6 6 4 5 5 7 6 4 4 6 10 12 8 11 7 5 7 7 7 7 6 nan
nan 8 3 3 6 17 13 4 11 5 8 14 10 8 5 5 4 6 4 4 10 1 5 7 5 7 4 7 7 6 7 9 6 6 5 6 4 5 6 14 16 11 9 8 13 7 9 10 nan
nan 13 8 7 6 4 12 18 5 -5 16 19 9 8 6 5 5 6 6 5 5 3 7 9 6 5 7 6 7 8 6 6 6 8 7 7 6 7 6 6 8 10 9 7 10 12 7 5 nan
nan -14 9 1 12 1 3 11 10 11 10 14 11 8 7 4 6 7 6 7 6 8 5 5 6 6 6 5 9 8 7 7 5 7 7 5 6 8 7 6 7 7 6 8 7 9 9 9 nan
nan 19 -1 1 11 9 13 7 8 11 12 8 9 8 7 6 5 5 7 8 8 7 7 5 4 6 4 6 7 7 8 5 7 7 7 6 7 6 7 8 7 6 8 11 10 7 8 5 nan
nan 11 16 19 5 1 6 5 11 9 10 7 8 8 8 8 7 5 6 8 6 8 10 8 5 7 4 4 4 6 6 6 7 7 10 8 8 5 6 6 7 6 8 10 7 5 8 8 nan
nan -4 14 -2 -11 14 15 6 -0 10 7 6 8 9 8 9 7 6 7 6 6 9 9 10 9 8 7 4 4 6 6 7 7 7 11 7 5 6 8 7 8 6 7 9 8 9 6 7 nan
nan 7 -0 8 7 6 8 4 16 10 5 8 6 8 6 10 8 8 7 6 9 9 7 5 10 11 5 6 8 7 7 8 8 10 6 8 9 7 5 7 7 8 9 11 8 7 7 8 nan
nan 6 5 3 11 6 -7 16 26 8 5 7 7 6 7 7 8 8 8 6 7 5 7 7 9 10 7 6 8 7 7 7 9 9 7 9 10 10 6 7 9 9 8 6 7 9 6 7 nan
nan -6 -9 8 33 9 -8 21 9 6 5 7 8 7 8 5 10 8 7 9 7 4 5 7 6 7 7 6 6 7 9 7 7 7 9 11 6 9 8 6 7 9 10 7 6 7 8 7 nan
nan 17 20 4 9 11 14 2 7 22 6 6 7 8 8 9 7 7 9 10 5 7 5 7 7 6 5 5 6 8 9 10 9 8 11 10 9 11 7 6 7 8 7 9 8 7 8 8 nan
nan 2 3 15 4 5 12 2 15 4 19 11 9 9 8 9 6 10 6 7 8 9 8 6 7 6 6 5 5 7 6 9 9 9 11 12 12 9 9 9 7 7 8 11 11 11 9 7 nan
nan 8 10 4 5 13 8 5 6 -3 16 20 14 9 9 8 11 10 7 9 7 8 7 8 9 7 7 6 5 8 6 6 8 8 8 10 11 8 9 8 8 8 9 10 10 9 7 8 nan
nan 8 3 2 10 11 2 5 6 10 0 14 15 11 8 10 11 6 10 10 9 10 9 10 9 7 8 8 6 6 8 7 9 9 10 9 9 11 8 7 9 9 9 9 8 7 7 6 nan
nan 17 17 9 14 9 5 1 10 14 16 14 -4 11 17 10 6 9 10 8 11 8 10 13 9 9 8 7 6 5 7 7 8 8 8 10 10 9 10 10 10 9 9 9 10 9 8 7 nan
nan 5 9 16 10 2 1 27 19 17 20 13 18 22 12 7 9 9 8 7 8 8 11 12 10 8 8 7 8 8 6 8 7 8 8 7 8 10 10 10 8 8 7 8 12 10 8 10 nan
nan 5 17 14 9 4 9 12 4 16 12 16 19 10 18 22 17 6 9 8 12 10 12 10 10 8 8 8 8 9 8 6 8 6 7 9 7 6 11 11 8 8 7 9 8 8 11 11 nan
nan 2 13 10 6 8 11 10 21 10 11 -6 8 11 8 10 17 21 15 11 10 11 11 11 10 10 14 14 10 12 13 11 10 12 12 9 8 11 14 9 9 8 12 8 8 10 11 10 nan
nan 6 -5 -4 13 16 12 13 20 6 -1 6 24 7 8 10 9 15 9 10 10 14 8 12 11 5 10 20 16 10 12 14 12 13 10 12 14 13 9 14 13 14 10 12 6 11 11 4 nan
nan 7 4 12 3 -1 7 12 14 16 -3 8 3 8 9 7 7 8 8 9 8 6 12 15 9 10 10 8 11 10 8 7 7 7 7 9 10 10 10 14 7 7 13 15 9 11 10 8 nan
nan nan nan nan nan nan nan nan nan nan nan nan nan nan nan nan nan nan nan nan nan nan nan nan nan nan nan nan nan nan nan nan nan nan nan nan nan nan nan nan nan nan nan nan nan nan nan nan nan
CAPE
1492 1886 2761 1748 48 327 359 176 121 96 18 43 220 192 198 357 720 1196 668 306 43 85 637 1548 2661 2697 2613 2634 2460 2350 2716 2096 2255 2113 2225 1868 2098 1540 1692 1950 2018 2185 2201 1938 2312 2323 2367 2250 2366
1889 2067 1391 310 62 84 284 341 175 131 133 261 500 657 394 432 669 588 471 141 61 163 257 900 2684 2806 2893 2770 2631 2690 2457 2065 2187 2167 2120 1876 2062 1389 1400 1370 2095 2140 2315 1951 1467 1544 1734 1818 1639
1390 1127 1077 211 345 269 351 326 75 120 379 366 641 851 394 517 497 556 305 82 128 224 554 1634 3109 3020 2880 2740 2546 2543 2194 1889 2229 2273 2185 2150 1999 1987 1965 1460 1098 2087 2091 1909 1886 1959 2257 2255 2235
1091 820 639 432 466 590 734 318 100 123 308 484 693 746 600 473 695 421 166 230 191 442 1345 2532 3048 2654 2673 2734 2697 2237 2088 2183 2481 2449 2292 1788 1860 1431 1810 1981 2064 1504 1475 1732 1853 2006 1872 2329 2138
314 543 637 554 280 431 414 331 363 368 423 512 607 516 443 477 304 354 267 153 230 1035 1222 1589 2774 2820 2812 2752 2678 2474 2326 2229 2369 2048 1879 1684 1556 1602 1736 1648 1072 1441 1938 1341 2005 1878 1688 1691 2133
604 543 741 289 47 359 434 592 549 510 213 300 422 430 501 476 398 545 346 214 936 1076 904 1481 2539 2639 2737 2468 2142 2014 1924 1851 1646 1525 1280 1019 963 1096 1339 1019 1181 1468 1457 1111 1054 1528 1981 1910 1376
154 296 62 98 387 717 451 595 716 281 133 42 535 657 505 495 584 528 210 607 767 755 1048 1343 1672 2100 2322 2419 2143 2020 1937 1833 1702 1409 1188 1231 1599 1782 1593 1574 1450 1375 1232 1296 1338 1221 982 1612 1706
322 54 134 28 1 420 650 643 691 361 85 39 335 643 566 423 398 529 184 404 401 457 675 1035 1015 1194 1636 1885 2152 1970 1820 1710 1494 1102 1642 1763 1407 794 257 447 1173 1310 1300 1363 1253 1402 1654 1560 1197
17 285 215 69 6 36 592 646 666 271 328 313 137 601 587 162 113 448 247 324 214 564 384 521 779 1201 1721 2079 1983 1869 1744 1589 1489 1533 132 56 247 0 0 12 895 1297 1370 1570 1371 1409 1391 1715 1717
202 111 117 63 21 8 429 197 326 435 426 377 366 428 263 83 69 70 137 217 249 462 150 836 824 680 1194 1133 2183 2186 2076 1482 932 262 1 15 194 199 0 25 795 445 450 1003 1583 1417 1503 1548 1065
111 195 57 75 133 11 24 27 578 627 606 401 431 367 174 93 40 21 32 121 135 335 209 534 734 1119 1186 1613 2005 1528 1960 1618 1377 553 0 98 319 159 447 579 627 889 244 325 884 1339 1232 986 884
67 147 82 178 212 230 42 162 598 439 595 510 309 283 218 168 87 25 13 19 56 78 396 372 816 1536 942 1846 1808 2058 1597 1512 1305 1034 905 1263 188 172 681 1296 236 147 552 425 947 1081 1416 1415 928
8 113 155 152 412 499 337 109 618 417 528 467 323 332 267 179 139 77 22 16 59 59 190 339 917 2659 2107 2051 1463 2137 1607 983 507 210 114 187 45 1286 1454 1120 711 1296 825 213 946 1248 954 871 963
14 26 164 43 362 816 639 475 457 396 474 451 349 333 328 204 170 82 27 21 64 110 230 228 1117 1963 1620 2390 2234 1830 1398 1037 552 248 137 491 294 763 385 194 419 1053 706 546 953 1161 1124 933 724
34 114 352 248 0 11 659 550 494 386 326 408 420 345 363 250 192 139 76 117 190 57 250 320 681 1155 1920 2303 2379 1801 1452 813 353 599 823 625 1165 1212 1132 833 924 584 642 1215 832 1076 1458 1270 760
216 154 13 43 40 0 135 312 574 465 374 308 300 390 358 228 172 214 236 230 293 493 1060 1090 549 819 1413 1426 1770 1583 756 469 208 732 957 1271 1327 1325 1402 347 537 463 529 469 1210 1365 1485 576 434
149 51 25 5 113 0 0 86 605 786 491 302 349 353 354 465 385 440 285 316 434 993 1596 1418 1735 828 1481 1686 1793 1316 1247 1029 917 930 1228 1268 1240 953 1237 861 852 719 439 1085 1470 944 972 1339 787
149 78 29 61 118 420 169 560 795 950 775 535 457 438 400 451 382 511 413 327 714 921 1726 1914 2115 2769 1645 2325 2231 1925 1598 1857 1856 1496 1807 1660 1505 1317 1422 851 1208 667 1115 1293 986 602 1480 896 413
45 80 42 1 447 421 683 316 580 621 819 901 647 545 503 494 484 739 663 694 1185 1728 1436 2667 3017 3610 3056 2385 2110 1985 1741 1742 1801 942 1113 1215 1219 1478 1593 1480 1514 1662 2017 1249 1051 1109 726 533 500
25 60 45 149 22 12 128 100 6 467 665 900 964 793 693 655 573 658 463 803 768 1824 2171 3203 3305 4223 3273 2950 2506 2103 2067 2403 1767 1711 1295 447 1272 1208 1590 1541 1805 1485 919 1153 1273 1305 696 518 419
150 13 18 30 67 76 58 155 25 178 399 800 779 834 816 765 706 597 779 638 1057 2021 2763 3361 3541 4095 3571 3321 3237 2342 2295 2133 1823 1128 1156 1702 2108 2146 2291 2325 2255 1900 1258 787 439 568 576 384 384
58 54 69 142 191 182 0 19 130 0 79 662 871 708 645 771 722 954 736 816 850 1922 2357 3458 3937 3969 3764 3880 3328 2840 2617 1993 2160 1789 1253 2389 2416 2738 2629 2541 2478 2564 1885 1892 711 1110 801 926 307
73 11 38 103 137 168 41 55 400 51 24 198 677 940 701 681 645 856 757 828 852 1439 2227 3116 4079 4123 4073 3707 3800 3393 3214 2435 2272 1679 2832 2034 2769 3195 2649 2900 2622 2500 1612 2114 1140 1144 360 1200 435
48 36 1 6 10 141 81 93 63 187 37 3 49 795 979 824 703 803 1082 1160 1010 1454 1509 2945 4243 4505 4168 4387 4033 4101 3761 3392 2976 2545 2573 2637 2694 2813 3035 3080 3049 2540 2392 2194 1815 1469 1070 1479 1046
19 169 169 98 257 215 125 97 65 76 189 112 285 514 1007 1250 1143 805 931 1050 1348 1570 1957 3198 4226 4398 4482 4196 4070 4015 3849 3788 3653 3211 2505 2460 2844 2715 2837 2599 3279 2682 2386 2307 2101 2201 2099 2021 1987
177 174 204 324 260 8 187 38 54 192 90 143 227 337 722 970 1153 1025 1220 1374 1739 1989 1943 2765 4020 4282 4196 4107 4155 3994 4302 3733 3781 3357 3050 2856 2628 2081 2529 2650 2437 2071 2741 2528 2119 1997 2067 2416 2177
183 192 185 60 22 48 101 50 22 285 345 400 525 919 868 1276 1770 1271 1701 1785 2240 2277 3094 2897 3721 3910 4005 3606 3989 3888 3641 3411 3469 2917 3163 2989 2909 2460 1910 1895 2005 1342 1595 2071 2339 2195 2258 1903 2135
15 39 124 62 66 80 128 240 374 692 398 248 968 1268 1556 2215 2267 2067 2134 2323 2378 2216 2270 2311 2620 2810 2760 2654 3200 3023 1977 2398 2232 3182 2642 2809 2543 1399 1257 1488 1175 920 850 1551 2492 1498 1946 2138 1520
60 20 28 85 288 173 209 243 451 101 0 76 1009 1464 1739 1864 1911 1989 2289 2183 1972 2219 2644 2674 2687 2906 3084 2911 2838 2576 2082 1621 1544 1744 1244 1554 1204 1029 798 865 297 105 397 1425 1269 1026 955 937 1219
23 19 0 109 103 53 75 173 333 26 37 216 1196 1394 1676 1857 2056 1948 1953 1919 2693 2732 2766 2747 2220 2114 2118 1970 2198 1817 1389 1451 1088 989 924 982 1071 726 829 451 239 194 251 1048 1888 1462 716 555 457